Tracking 28348 objects as of 9-Dec-2023
HD Live streaming from Space Station
objects crossing your sky now

STARLINK-5601

Track STARLINK-5601 now!
10-day predictions
STARLINK-5601 is classified as:


NORAD ID: 55744
Int'l Code: 2023-028D
Perigee: 577.4 km
Apogee: 581.0 km
Inclination: 70.0 °
Period: 96.1 minutes
Semi major axis: 6950 km
RCS: Unknown
Launch date: March 3, 2023
Source: United States (US)
Launch site: AIR FORCE WESTERN TEST RANGE (AFWTR)
Your satellite tracking list
Your tracking list is empty




NASA's NSSDC Master Catalog

Two Line Element Set (TLE):
1 55744U 23028D   23342.52071266  .00000006  00000-0  82942-5 0  9999
2 55744  69.9982 157.5782 0002570 261.5221  98.5647 14.98338685 42884
Source of the keplerian elements: AFSPC